Current weather by "City, St" or "zip code"  
 

Current Conditions: SCHENECTADY AIRP

Partly Cloudy


82.4 F

Last Updated on Jun 17 2024, 09:45 PM EDT
Humidity: 58%
Wind Speed: S 4.7 mph
Barometer 30.12 in
Dewpoint: 66.2 F
Visibility: 10.00 mi
Precip: --
Heat Index: 84.6 F
Wind Chill: NA
Current conditions at:

SCHENECTADY AIRP (KSCH)

Lat: 42.85 Lon: 73.93

active severe weather and emergency alerts image image weather storm and storm spotter reports image weather observation monitoring service image
Active
Alerts
Storm Reports Obs
Monitoring

Sign-up For Email & Text Message Weather Alert Notification Services



Advertise Here

Observation History for SCHENECTADY AIRP


Time Wind
(mph)
Vis
(mi)
Weather Precip (in) Temperature (F) Relative
Humidity
Wind
Chill
(F)
Heat
Index
(F)
Pressure
Air Dwpt altimeter
(in)
sea level
(mb)
Rmks
09:45 PM EDT S 4.7 10.00 Partly Cloudy -- 82.4 66.2 58% NA 84.6 30.12 1019.7
07:47 PM EDT 3.4 10.00 Clear -- 86.0 66.2 52% NA 88.3 30.06 1018.0
06:45 PM EDT S 3.4 10.00 Partly Cloudy -- 87.8 66.2 49% NA 90.3 30.05 1017.6
05:45 PM EDT S 9.2 10.00 Clear -- 89.6 66.2 46% NA 92.3 30.04 1017.3
03:45 PM EDT 5.8 10.00 Clear -- 87.8 64.4 46% NA 89.4 30.07 1018.3
09:48 AM EDT S 8.1 15.00 Clear -- 73.4 60.8 65% NA 73.4 30.15 1021.0
08:50 AM EDT S 8.1 15.00 Clear -- 69.8 57.2 64% NA NA 30.17 1021.7
07:56 AM EDT S 8.1 15.00 NULL -- 66.2 57.2 73% NA NA 30.18 1022.0
08:45 PM EDT 3.4 15.00 Clear -- 66.2 50.0 56% NA NA 30.17 1021.7
07:45 PM EDT 5.8 15.00 Clear -- 71.6 46.4 41% NA 70.3 30.16 1021.3
06:45 PM EDT E 4.7 15.00 Clear -- 75.2 44.6 34% NA 73.9 30.16 1021.3
05:45 PM EDT 8.1 15.00 Clear -- 75.2 44.6 34% NA 73.9 30.17 1021.7
03:45 PM EDT 0.0 15.00 Clear -- 75.2 % NA NA 30.20 1022.7
01:45 PM EDT 4.7 15.00 Clear -- 75.2 % NA NA 30.25 1024.1
10:57 AM EDT 0.0 15.00 Clear -- 68.0 41.0 37% NA NA 30.28 1025.4
08:50 AM EDT 0.0 15.00 NULL -- 62.6 46.4 55% NA NA 30.30 1026.1
07:48 AM EDT 0.0 15.00 Clear -- 57.2 46.4 67% NA NA 30.29 1025.7
08:45 PM EDT NE 9.2 15.00 Clear -- 64.4 46.4 52% NA NA 30.09 1019.0
02:47 PM EDT 12.8 15.00 Partly Cloudy -- 77.0 42.8 30% NA 75.7 30.03 1016.9
07:56 AM EDT 15.00 Clear -- 64.4 % NA NA 30.05 1017.6
09:45 PM EDT NW 6.9 10.00 Clear -- 69.8 53.6 56% NA NA 29.88 1011.9
08:45 PM EDT 6.9 10.00 Clear -- 71.6 53.6 53% NA 70.9 29.84 1010.5
06:45 PM EDT 11.4 10.00 Clear -- 75.2 51.8 44% NA 74.5 29.83 1010.2
03:45 PM EDT 10.00 Clear -- 84.2 51.8 33% NA 82.4 29.82 1009.8

Regional Weather Observation


ALBANY (KALB)

Partly Cloudy
80.1 F

GLENS FALLS (KGFL)

Clear
70.0 F

BENNINGTON (KDDH)

Mostly Clear
72.0 F

NORTH ADAMS (KAQW)

Clear
73.9 F

PITTSFIELD (KPSF)

Clear
73.0 F

ROME/GRIFFISS AF (KRME)

Clear
72.0 F

Advertise Here


Advertise Here